Погода в Гоа

Россия / Республика Дагестан     41°45′15″N   47°42′04″E
темп.,
°C
ветер,
м/с
пор.,
м/с
влажн.,
%
обл.,
%
осадки,
мм/ч
давл.,
гПа
погр.,
м
26 июня, вс
вс2600:00+12з3377100 0.0 101125
03:00+11зсз2276100 0.1 101114
06:00+13юз117899 0.1 101174
09:00+16юв447675 0.6 1009576
12:00+19вюв5563100 0.6 10071192
15:00+18в337199 1.5 1007763
18:00+16всв228599 2.1 1007249
21:00+13з1187100 2.4 101011
27 июня, пн
пн2700:00+12зюз11865 0.6 101010
03:00+11зсз32760 0.6 101115
06:00+15з11710 0.0 101150
09:00+19в21610 0.0 1009677
12:00+20в32660 0.5 10101004
15:00+19в327169 1.1 10101022
18:00+17вюв118141 0.3 1011331
21:00+14з32852 0.5 101218
28 июня, вт
вт2800:00+13з43730 0.0 101127
03:00+13з43640 0.0 101024
06:00+15зсз32660 0.0 101040
09:00+20в22570 0.0 1009795
12:00+19в427246 0.4 1010906
15:00+18вюв337456 1.3 1010790
18:00+16в218471 0.3 1013361
21:00+12ссз119326 0.4 101560
29 июня, ср
ср2900:00+11ссз119122 0.1 101612
03:00+11сз118937 0.1 101515
06:00+13в118676 0.2 1016173
09:00+13в228698 0.4 1016508
12:00+15в227583 0.2 1016768
15:00+15в226664 0.3 1016932
18:00+14в227231 0.0 1016452
21:00+9юз11880 0.1 101811
30 июня, чт
чт3000:00+9зюз11860 0.1 101810
03:00+9з11850 0.1 101710
06:00+11вюв11810 0.0 1016112
09:00+16вюв327553 0.0 1014724
12:00+14вюв339399 0.6 1015518
15:00+12вюв3398100 1.3 1015295
18:00+11вюв229999 0.4 1016166
21:00+11с119267 0.5 101786